Regional Weather Roundup
Issued by NWS Sterling, VA

Home | Current Version | Previous Version | Graphics & Text | Print | Product List | Glossary On
Versions: 1 2 3 4 5 6 7 8 9 10 11 12 13 14 15 16 17 18 19 20 21 22 23 24 25 26 27 28 29 30 31 32 33 34 35 36 37 38 39 40 41 42 43 44 45 46 47 48 49 50
000
ASUS41 KLWX 181610
RWRLWX

REGIONAL WEATHER ROUNDUP
NATIONAL WEATHER SERVICE BALTIMORE MD/WASHINGTON DC
1200 PM EDT SAT APR 18 2015

Note: "FAIR" indicates few or no clouds below 12,000 feet
with no significant weather and/or obstructions to visibility.
 TC=TEMPERATURE CELSIUS

 * =Non NWS site. Station does not report precipitation (e.g. rain,
    snow, etc.), thunder, or fog.

DCZ001-MDZ009-015-VAZ040>042-051-053>054-181700-
WASHINGTON METRO

CITY           SKY/WX    TMP DP  RH WIND       PRES   REMARKS
WASHINGTON NAT MOSUNNY   77  52  41 N6        30.03S
DULLES         MOSUNNY   74  49  41 VRB7      30.04S
ANDREWS AFB    MOSUNNY   72  51  47 N6        30.02S
FT BELVOIR     SUNNY     75  51  42 VRB1      30.03S
QUANTICO       SUNNY     72  52  49 E8        30.04S
COLLEGE PARK*  SUNNY     73  46  38 CALM      30.03S
LEESBURG*      SUNNY     73  52  46 N6        30.05S
MANASSAS*      SUNNY     75  48  38 NE6       30.04S
GAITHERSBURG*  SUNNY     73  46  38 E5        30.07F

$$

MDZ006>007-011-014-181700-
BALTIMORE METRO

CITY           SKY/WX    TMP DP  RH WIND       PRES   REMARKS
BWI AIRPORT    MOSUNNY   71  47  42 VRB5      30.02F
MD SCIENCE CTR   N/A     72  47  40 MISG      30.04F
MARTIN STATE   MOSUNNY   73  55  53 SE8       30.05S
ANNAPOLIS      SUNNY     69  50  50 E5        30.03S
FORT MEADE*    SUNNY     72  45  37 NE6       30.06S

$$

MDZ012-015-019>023-181700-
MARYLAND EASTERN SHORE

CITY           SKY/WX    TMP DP  RH WIND       PRES   REMARKS
OCEAN CITY     SUNNY     66  48  52 NE7       30.03R
SALISBURY      PTSUNNY   73  59  61 NE10      30.00F
BAY BRIDGE AP*   N/A     64  54  68 NW8       30.04S
CAMBRIDGE*     SUNNY     72  55  56 N6        30.01F
EASTON*        MOSUNNY   73  55  53 NE10      30.06S

$$

MDZ017>025-181700-
SOUTHERN MARYLAND

CITY           SKY/WX    TMP DP  RH WIND       PRES   REMARKS
PATUXENT RIVER MOSUNNY   72  54  53 NE5       30.02S
ST INIGOES     SUNNY     75  50  41 NW8       30.01S
LEONARDTOWN*     N/A     72  48  43 N5        30.04S VSB 1/2

$$

MDZ003>005-181700-
NORTH CENTRAL MARYLAND

CITY           SKY/WX    TMP DP  RH WIND       PRES   REMARKS
FREDERICK*     SUNNY     75  36  23 CALM      30.06F
HAGERSTOWN APT SUNNY     73  45  36 VRB3      30.04F
WESTMINSTER*   SUNNY     72  39  30 N3        30.04F

$$

MDZ501>502-181700-
WESTERN MARYLAND

CITY           SKY/WX    TMP DP  RH WIND       PRES   REMARKS
OAKLAND*       SUNNY     64  39  39 N9        30.11S
CUMBERLAND*    SUNNY     72  45  37 SE3       30.09F

$$

VAZ025>031-181700-
SHENANDOAH VALLEY

CITY           SKY/WX    TMP DP  RH WIND       PRES   REMARKS
WINCHESTER*    SUNNY     73  34  23 N5        30.05F
FRONT ROYAL*   FAIR      70  50  49 CALM      30.05S
LURAY*         FAIR      75  52  43 NE3       30.05F
NEW MARKET*    FAIR      73  47  40 CALM      30.03F
STAUNTON*      SUNNY     71  54  54 NE3       30.08S
WAYNESBORO*    FAIR      69  52  54 N5        30.07S

$$

WVZ021-048>050-054>055-181700-
EASTERN WEST VIRGINIA PANHANDLE

CITY           SKY/WX    TMP DP  RH WIND       PRES   REMARKS
MARTINSBURG    NOT AVBL
PETERSBURG*    SUNNY     73  48  41 E5        30.06F

$$

VAZ036>039-050-181700-
CENTRAL FOOTHILLS

CITY           SKY/WX    TMP DP  RH WIND       PRES   REMARKS
CHARLOTTESVILL SUNNY     74  54  49 VRB3      30.03F
CULPEPER*      SUNNY     75  52  43 CALM      30.04S
ORANGE*        SUNNY     73  52  46 NW5       30.06S
GORDONSVILLE*  NOT AVBL
WARRENTON*     FAIR      76  50  40 N6        30.04S

$$

VAZ055>057-181700-
NORTH AND CENTRAL PIEDMONT

CITY           SKY/WX    TMP DP  RH WIND       PRES   REMARKS
FREDERICKSBRG* SUNNY     76  49  37 NE7       30.02S
STAFFORD*      SUNNY     76  45  33 NW8       30.06F

$$

NCZ024-NYZ072-PAZ021-071-VAZ022-071-181700-
OTHER REGIONAL OBSERVATIONS

CITY           SKY/WX    TMP DP  RH WIND       PRES   REMARKS
NEW YORK CITY  SUNNY     74  40  29 CALM      29.99F
PHILADELPHIA   PTSUNNY   72  46  39 SW7       30.00F
PITTSBURGH     PTSUNNY   72  44  36 NW10      30.06F
ROANOKE        SUNNY     73  54  51 N5        30.06F
RICHMOND       MOSUNNY   76  53  44 N7        30.02F
RALEIGH        PTSUNNY   75  61  61 E6        30.02S

$$

ANZ530>537-181700-
MARINE OBSERVATIONS

STATION/POSITION TIME  TEMP    WIND        PRES
                       AIR SEA DIR/SP/G
                 (UTC) (F)     (DEG/KT/KT) (MB)
THOMAS PT LIGHT  1600   64 54  360/  6/  6 1017.6S
BALT KEY BRIDGE  1500   66     160/  4/  4 1017.0S
COVE POINT       1500   59     350/ 12/ 12 1016.7R
LEWISETTA        1500   68 59              1016.3F
SOLOMONS ISLAND  1500      55                N/A
PINEY POINT      1500          230/  4/  4   N/A

$$




USA.gov is the U.S. government's official web portal to all federal, state and local government web resources and services.